NKJ YBAF-YBAF

Flight info

Callsign NKJ
Flight time 0h 24m
Altitude 1000
Route EASTERN TRAINING AREA/ AEROATIC TRAINING
Aircraft CP10/L-S/1200

Departure

Time 2026-04-17 03:43
Airport Brisbane Archerfield Airport (YBAF)

Arrival

Time 2026-04-17 04:08
Airport Brisbane Archerfield Airport (YBAF)
Time Latitude Longitude Altitude Speed Heading
2026-04-17 03:33 -27.57339 153.01234 72 ft 0 kts
2026-04-17 03:35 -27.57327 153.01225 68 ft 7 kts 294°
2026-04-17 03:35 -27.57317 153.01173 70 ft 7 kts 282°
2026-04-17 03:36 -27.57286 153.01118 70 ft 0 kts 177°
2026-04-17 03:39 -27.57333 153.01129 72 ft 13 kts 168°
2026-04-17 03:40 -27.57387 153.01124 72 ft 0 kts 196°
2026-04-17 03:41 -27.57404 153.01119 72 ft 8 kts 190°
2026-04-17 03:41 -27.57428 153.01078 68 ft 0 kts 290°
2026-04-17 03:41 -27.57400 153.01006 67 ft 33 kts 292°
2026-04-17 03:42 -27.57294 153.00575 74 ft 78 kts 292°
2026-04-17 03:42 -27.57097 152.99880 75 ft 105 kts 285°
2026-04-17 03:42 -27.56968 152.99266 343 ft 89 kts 264°
2026-04-17 03:42 -27.57414 152.99257 367 ft 100 kts 105°
2026-04-17 03:43 -27.57653 152.99987 439 ft 102 kts 103°
2026-04-17 03:43 -27.57875 153.00729 542 ft 101 kts 99°
2026-04-17 03:43 -27.57991 153.01504 437 ft 103 kts 90°
2026-04-17 03:43 -27.58125 153.02219 823 ft 81 kts 103°
2026-04-17 03:44 -27.58233 153.02849 952 ft 91 kts 96°
2026-04-17 03:44 -27.58306 153.03627 975 ft 111 kts 93°
2026-04-17 03:44 -27.58391 153.04546 962 ft 123 kts 94°
2026-04-17 03:44 -27.58443 153.05533 958 ft 127 kts 90°
2026-04-17 03:45 -27.58499 153.06550 944 ft 132 kts 90°
2026-04-17 03:45 -27.58511 153.07576 996 ft 130 kts 88°
2026-04-17 03:45 -27.58487 153.08568 971 ft 130 kts 84°
2026-04-17 03:45 -27.58475 153.09580 1101 ft 127 kts 85°
2026-04-17 03:46 -27.58491 153.10555 1123 ft 125 kts 91°
2026-04-17 03:46 -27.58558 153.11529 1098 ft 124 kts 92°
2026-04-17 03:46 -27.58617 153.12498 1124 ft 120 kts 92°
2026-04-17 03:46 -27.58657 153.13413 1177 ft 115 kts 93°
2026-04-17 03:47 -27.58687 153.14310 1188 ft 115 kts 93°
2026-04-17 03:47 -27.58703 153.15229 1109 ft 116 kts 88°
2026-04-17 03:47 -27.58692 153.16124 1071 ft 112 kts 90°
2026-04-17 03:47 -27.58683 153.16982 1100 ft 110 kts 86°
2026-04-17 03:48 -27.58694 153.17866 1046 ft 114 kts 88°
2026-04-17 03:48 -27.58708 153.18755 1026 ft 113 kts 88°
2026-04-17 03:48 -27.58732 153.19642 943 ft 114 kts 88°
2026-04-17 03:48 -27.58786 153.20489 865 ft 110 kts 95°
2026-04-17 03:49 -27.58964 153.21346 829 ft 114 kts 103°
2026-04-17 03:49 -27.59182 153.22191 915 ft 113 kts 91°
2026-04-17 03:49 -27.58827 153.22727 1200 ft 8 kts 319°
2026-04-17 03:49 -27.59051 153.22781 1121 ft 14 kts 264°
2026-04-17 03:50 -27.59290 153.23099 738 ft 99 kts 89°
2026-04-17 03:50 -27.59327 153.23769 1181 ft 6 kts 258°
2026-04-17 03:50 -27.59238 153.24058 676 ft 72 kts 70°
2026-04-17 03:50 -27.59038 153.24606 881 ft 90 kts 61°
2026-04-17 03:51 -27.58720 153.25405 767 ft 123 kts 59°
2026-04-17 03:51 -27.58323 153.26280 695 ft 130 kts 55°
2026-04-17 03:51 -27.57815 153.27113 660 ft 125 kts 51°
2026-04-17 03:51 -27.57527 153.28018 733 ft 131 kts 86°
2026-04-17 03:52 -27.57960 153.28937 732 ft 144 kts 128°
2026-04-17 03:52 -27.58649 153.29768 642 ft 148 kts 127°
2026-04-17 03:52 -27.59415 153.30555 486 ft 133 kts 160°
2026-04-17 03:52 -27.60105 153.30666 1070 ft 8 kts 329°
2026-04-17 03:53 -27.59789 153.30527 341 ft 107 kts 340°
2026-04-17 03:53 -27.59774 153.30473 531 ft 95 kts 162°
2026-04-17 03:53 -27.60449 153.30784 412 ft 90 kts 117°
2026-04-17 03:53 -27.60702 153.31082 602 ft 10 kts 24°
2026-04-17 03:54 -27.60328 153.31280 610 ft 57 kts 359°
2026-04-17 03:54 -27.59951 153.31200 779 ft 34 kts 349°
2026-04-17 03:54 -27.59467 153.30838 151 ft 86 kts 328°
2026-04-17 03:54 -27.59796 153.30626 508 ft 102 kts 191°
2026-04-17 03:55 -27.60451 153.30585 821 ft 86 kts 181°
2026-04-17 03:55 -27.61042 153.30646 1079 ft 65 kts 174°
2026-04-17 03:55 -27.60968 153.30765 748 ft 78 kts 348°
2026-04-17 03:55 -27.60522 153.30892 521 ft 58 kts
2026-04-17 03:56 -27.60018 153.30740 169 ft 114 kts
2026-04-17 03:56 -27.59438 153.30723 187 ft 109 kts 357°
2026-04-17 03:56 -27.59518 153.30665 682 ft 81 kts 191°
2026-04-17 03:56 -27.60109 153.30608 700 ft 94 kts 171°
2026-04-17 03:57 -27.60468 153.30427 376 ft 97 kts
2026-04-17 03:57 -27.60204 153.30519 288 ft 79 kts 11°
2026-04-17 03:57 -27.59511 153.30525 435 ft 101 kts 356°
2026-04-17 03:57 -27.59361 153.30862 520 ft 127 kts 190°
2026-04-17 03:58 -27.59793 153.30678 718 ft 63 kts 198°
2026-04-17 03:58 -27.60189 153.30540 835 ft 40 kts 11°
2026-04-17 03:58 -27.59669 153.30373 569 ft 109 kts 292°
2026-04-17 03:58 -27.59563 153.29486 666 ft 116 kts 280°
2026-04-17 03:59 -27.59494 153.28622 1019 ft 107 kts 279°
2026-04-17 03:59 -27.59430 153.27883 1437 ft 85 kts 279°
2026-04-17 03:59 -27.59371 153.27141 1611 ft 103 kts 277°
2026-04-17 03:59 -27.59239 153.26335 1854 ft 107 kts 283°
2026-04-17 04:00 -27.59058 153.25498 2043 ft 114 kts 284°
2026-04-17 04:00 -27.58894 153.24642 2204 ft 120 kts 282°
2026-04-17 04:00 -27.58819 153.23679 2182 ft 123 kts 278°
2026-04-17 04:00 -27.58725 153.22701 2260 ft 125 kts 276°
2026-04-17 04:01 -27.58603 153.21742 2308 ft 127 kts 277°
2026-04-17 04:01 -27.58476 153.20660 2018 ft 146 kts 278°
2026-04-17 04:01 -27.58386 153.19524 1661 ft 142 kts 276°
2026-04-17 04:01 -27.58278 153.18460 1193 ft 134 kts 279°
2026-04-17 04:02 -27.58148 153.17400 895 ft 143 kts 278°
2026-04-17 04:02 -27.58040 153.16297 792 ft 141 kts 279°
2026-04-17 04:02 -27.57954 153.15230 854 ft 132 kts 277°
2026-04-17 04:02 -27.57851 153.14184 832 ft 136 kts 282°
2026-04-17 04:03 -27.57688 153.13136 853 ft 132 kts 279°
2026-04-17 04:03 -27.57565 153.12100 863 ft 138 kts 285°
2026-04-17 04:03 -27.57341 153.11034 796 ft 139 kts 287°
2026-04-17 04:03 -27.57125 153.09981 804 ft 138 kts 283°
2026-04-17 04:04 -27.56939 153.08930 914 ft 135 kts 277°
2026-04-17 04:04 -27.56895 153.07901 1111 ft 125 kts 275°
2026-04-17 04:04 -27.56796 153.06896 1124 ft 130 kts 275°
2026-04-17 04:04 -27.57061 153.06051 1332 ft 101 kts 289°
2026-04-17 04:05 -27.56802 153.05248 1219 ft 116 kts 292°
2026-04-17 04:05 -27.56559 153.04342 1114 ft 126 kts 287°
2026-04-17 04:05 -27.56355 153.03392 974 ft 122 kts 288°
2026-04-17 04:05 -27.56124 153.02499 969 ft 115 kts 288°
2026-04-17 04:06 -27.55937 153.01612 974 ft 116 kts 288°
2026-04-17 04:06 -27.55697 153.00737 956 ft 117 kts 290°
2026-04-17 04:06 -27.55423 152.99889 843 ft 115 kts 291°
2026-04-17 04:06 -27.55344 152.99031 824 ft 105 kts 264°
2026-04-17 04:07 -27.55817 152.98487 806 ft 109 kts 192°
2026-04-17 04:07 -27.56494 152.98562 679 ft 93 kts 171°
2026-04-17 04:07 -27.56875 152.99153 250 ft 91 kts 116°
2026-04-17 04:07 -27.57050 152.99783 57 ft 79 kts 103°
2026-04-17 04:08 -27.57169 153.00232 52 ft 25 kts 109°
2026-04-17 04:08 -27.57210 153.00355 56 ft 14 kts 107°
2026-04-17 04:08 -27.57229 153.00436 58 ft 6 kts 82°
2026-04-17 04:08 -27.57196 153.00463 55 ft 1 kts 14°
2026-04-17 04:09 -27.57196 153.00464 55 ft 2 kts 15°
2026-04-17 04:09 -27.57170 153.00507 53 ft 9 kts 111°
2026-04-17 04:09 -27.57191 153.00579 58 ft 10 kts 102°
2026-04-17 04:09 -27.57207 153.00633 59 ft 4 kts 107°
2026-04-17 04:10 -27.57226 153.00700 60 ft 12 kts 108°
2026-04-17 04:10 -27.57257 153.00808 59 ft 15 kts 107°
2026-04-17 04:10 -27.57284 153.00903 61 ft 11 kts 108°
2026-04-17 04:10 -27.57303 153.00975 63 ft 8 kts 109°
2026-04-17 04:11 -27.57324 153.01045 66 ft 10 kts 108°
2026-04-17 04:11 -27.57342 153.01111 68 ft 8 kts 108°
2026-04-17 04:11 -27.57373 153.01153 69 ft 8 kts 90°
2026-04-17 04:11 -27.57358 153.01177 70 ft 0 kts
2026-04-17 04:12 -27.57357 153.01177 70 ft 0 kts